Starlink 6037

operational
NORAD ID: 56461 Int'l Des: 2023-064 Owner: SPXS Country: US Constellation: starlink
LEOCIRCULAR

About Starlink 6037

Description loading...

Live Position

Loading 3D Globe...

Upcoming Passes

Altitude History

Altitude vs Time

uPlot chart will show altitude changes over time

Two-Line Element Set

1 56461U 23064P 25257.33445416 .00000267 00000-0 30211-4 0 9994
2 56461 69.9982 228.9497 0003325 269.3661 90.7117 14.98329907128833
Epoch: Sep 14, 2025 • Age: 24 hours

Current Status

Altitude 592.1 km
Velocity 7.56 km/s
Sub-Earth Point -58.93°S, 24.37°W
Launch Date May 10, 2023
Age 2.3 years
Type internet

Technical Details

Classification Payload
Mass 305.00 kg
Dry Mass 290.00 kg
Total Mass 305.00 kg
Length 0.20 m
Diameter 2.80 m
Span 9.00 m
Shape Box + pan
Manufacturer SPXS
Bus Type Starlink
Phase Status In Orbit
Owner/State SPXS/US

Large Constellations

Loading constellations...